#timestamp,LO_Frequency,Hit,StdDev 
1710072015.4,286046998.2,N
1710072035.3,286047000.9,N
1710072055.1,286047000.6,N
1710072075.8,286047000.7,N
1710072095.7,286047000.9,N
1710072115.5,286046999.4,N
1710072135.4,286046998.9,N
1710072155.2,286046998.2,N
1710072175.0,286046999.4,N
1710072175.9,286046999.4,N
1710072195.8,286046997.0,N
1710072215.6,286046999.4,N
1710072235.4,286046998.8,N
1710072255.3,286046999.0,N
1710072275.1,286046998.7,N
1710072295.9,286047001.2,N
1710072315.7,286047001.1,N
1710072335.5,286046998.2,N
1710072355.4,286047000.4,N
1710072375.2,286046999.8,N
1710072395.0,286047000.4,N
1710072396.0,286047000.4,N
1710072415.8,286047002.7,N
1710072435.6,286047000.5,N
1710072455.5,286047002.1,N
1710072475.3,286047002.4,N
1710072495.1,286047000.0,N
1710072515.9,286047000.6,N
1710072535.7,286046998.6,N
1710072555.6,286046998.4,N
1710072575.4,286046999.6,N
1710072595.2,286046999.4,N
1710072615.1,286046997.0,N
1710072616.0,286046997.0,N
1710072635.8,286046998.3,N
1710072655.6,286046996.7,N
1710072675.5,286046996.9,N
1710072695.3,286046999.4,N
1710072715.2,286046999.6,N
1710072735.9,286046999.3,N
1710072755.7,286046998.3,N
1710072775.6,286046998.1,N
1710072795.4,286046998.1,N
1710072815.2,286046998.4,N
1710072835.1,286047000.8,N
1710072836.0,286047000.8,N
1710072855.8,286047000.8,N
1710072875.7,286047000.0,N
1710072895.5,286047002.6,N
1710072915.3,286047002.1,N
1710072935.2,286047002.3,N
1710072955.0,286046999.8,N
1710072955.9,286046999.8,N
1710072975.8,286047002.6,N
1710072995.6,286047002.8,N
1710073015.4,286047002.7,N
1710073035.3,286047002.4,N
1710073055.1,286047002.2,N
1710073075.8,286047001.7,N
1710073095.7,286047003.8,N
1710073115.5,286047001.8,N
1710073135.4,286047002.2,N
1710073155.2,286047000.0,N
1710073175.0,286046999.9,N
1710073175.9,286046999.9,N
1710073195.8,286047002.8,N
1710073215.6,286046999.8,N
1710073235.5,286047001.9,N
1710073255.3,286047001.7,N
1710073275.1,286047001.5,N
1710073295.9,286047002.0,N
1710073315.7,286047001.4,N
1710073335.5,286047001.6,N
1710073355.4,286047001.5,N
1710073375.2,286047001.8,N
1710073395.1,286047002.5,N
1710073396.0,286047002.5,N
1710073415.8,286047002.5,N
1710073435.6,286047001.6,N
1710073455.5,286047001.8,N
1710073475.3,286047001.8,N
1710073495.2,286047001.7,N
1710073515.0,286047001.8,N
1710073515.9,286047001.8,N
1710073535.8,286047001.8,N
1710073555.6,286047003.7,Y
1710073575.4,286046999.9,P
1710073595.3,286047000.0,N
1710073615.1,286047000.0,N
1710073635.8,286047001.2,N
1710073655.7,286046998.1,N
1710073675.5,286046999.0,N
1710073695.4,286046996.9,N
1710073715.2,286046996.5,N
1710073735.0,286046996.9,N
1710073736.0,286046996.9,N
1710073755.8,286046998.1,N
1710073775.6,286047000.9,N
1710073795.5,286046998.1,N
1710073815.3,286046998.7,N
1710073835.1,286046999.6,N
1710073855.9,286046999.4,N
1710073875.7,286046996.9,N
1710073895.6,286046994.9,Y
1710073915.4,286046999.0,P
1710073935.2,286046998.2,P
1710073955.1,286047000.6,N
1710073956.0,286047000.6,N
1710073975.8,286047002.7,N
1710073995.6,286047002.2,N
1710074015.5,286047002.7,N
1710074035.3,286047002.6,N
1710074055.2,286047002.3,N
1710074075.9,286047000.5,N
1710074095.7,286047000.9,N
1710074115.6,286047000.4,N
1710074135.4,286047000.8,N
1710074155.2,286047001.2,N
1710074175.1,286047000.6,N
1710074176.0,286047000.6,N
1710074195.8,286047000.9,N
1710074215.7,286047000.1,N
1710074235.5,286046999.8,N
1710074255.3,286047002.4,N
1710074275.2,286047002.6,N
1710074295.0,286047000.0,N
1710074295.9,286047000.0,N
1710074315.8,286046999.9,N
1710074335.6,286046998.1,N
1710074355.4,286047001.0,N
1710074375.3,286047001.0,N
1710074395.1,286046998.7,N
1710074415.8,286046998.9,N
1710074435.7,286046998.2,N
1710074455.5,286046999.0,N
1710074475.4,286046999.4,N
1710074495.2,286046996.5,N
1710074515.0,286046999.2,N
1710074515.9,286046999.2,N
1710074535.8,286046998.8,N
1710074555.6,286046999.0,N
1710074575.4,286047000.8,N
1710074595.3,286047000.7,N
1710074615.1,286047001.2,N
1710074635.9,286046998.1,N
1710074655.7,286046999.9,N
1710074675.5,286047000.6,N
1710074695.4,286047000.4,N
1710074715.2,286047002.8,N
1710074735.1,286047000.3,N
1710074736.0,286047000.3,N
1710074755.8,286047001.0,N
1710074775.6,286047000.5,N
1710074795.5,286047000.3,N
1710074815.3,286046999.8,N
1710074835.1,286047000.0,N
1710074855.9,286047001.9,N
1710074875.7,286047002.3,N
1710074895.6,286046999.7,N
1710074915.4,286047000.8,N
1710074935.2,286046999.7,N
1710074955.1,286047001.2,N
1710074956.0,286047001.2,N
1710074975.8,286047000.8,N
1710074995.6,286047000.8,N
1710075015.5,286047001.2,N
1710075035.3,286047002.2,N
1710075055.2,286046999.9,N
1710075075.9,286047002.0,N
1710075095.7,286047001.6,N
1710075115.6,286047004.3,Y
1710075135.4,286047002.2,P
1710075155.3,286047002.4,P
1710075175.1,286047000.0,N
1710075176.0,286047000.0,N
1710075195.8,286047000.3,N
1710075215.7,286047000.3,N
1710075235.5,286046999.7,N
1710075255.3,286047002.3,N
1710075275.2,286046999.8,N
1710075295.0,286046998.1,N
1710075295.9,286046998.1,N
1710075315.8,286046998.8,N
1710075335.6,286046998.9,N
1710075355.4,286046999.4,N
1710075375.3,286046996.7,N
1710075395.1,286046999.4,N
1710075415.8,286047001.0,N
1710075435.7,286047000.4,N
1710075455.5,286046999.9,N
1710075475.4,286047001.0,N
1710075495.2,286046998.1,N
1710075515.0,286046998.3,N
1710075515.9,286046998.3,N
1710075535.8,286046998.2,N
1710075555.6,286047001.1,N
1710075575.4,286047000.2,N
1710075595.3,286047000.6,N
